Regional Weather Roundup
Issued by NWS Sterling, VA

Home | Current Version | Previous Version | Text Only | Print | Product List | Glossary On
Versions: 1 2 3 4 5 6 7 8 9 10 11 12 13 14 15 16 17 18 19 20 21 22 23 24 25 26 27 28 29 30 31 32 33 34 35 36 37 38 39 40 41 42 43 44 45 46 47 48 49 50
000
ASUS41 KLWX 210710
RWRLWX

REGIONAL WEATHER ROUNDUP
NATIONAL WEATHER SERVICE BALTIMORE MD/WASHINGTON DC
200 AM EST SUN DEC 21 2014

Note: "FAIR" indicates few or no clouds below 12,000 feet
with no significant weather and/or obstructions to visibility.
 TC=TEMPERATURE CELSIUS

 * =Non NWS site. Station does not report precipitation (e.g. rain,
    snow, etc.), thunder, or fog.

DCZ001-MDZ009-015-VAZ040>042-051-053>054-210800-
WASHINGTON METRO

CITY           SKY/WX    TMP DP  RH WIND       PRES   REMARKS
WASHINGTON NAT CLOUDY    37  25  61 CALM      30.32R
DULLES         CLOUDY    31  24  75 CALM      30.30R
ANDREWS AFB    CLOUDY    30  25  79 CALM      30.29S
FT BELVOIR     CLOUDY    32  26  78 CALM      30.32R
QUANTICO       CLOUDY    33  27  78 NW6       30.33R
COLLEGE PARK*  CLOUDY    32  28  86 CALM      30.31R
LEESBURG*      CLOUDY    32  28  86 CALM      30.31R
MANASSAS*      CLOUDY    32  30  93 CALM      30.31R
GAITHERSBURG*  CLOUDY    30  21  69 CALM      30.33R

$$

MDZ006>007-011-014-210800-
BALTIMORE METRO

CITY           SKY/WX    TMP DP  RH WIND       PRES   REMARKS
BWI AIRPORT    CLOUDY    30  25  81 CALM      30.30R
MD SCIENCE CTR   N/A     34  23  64 MISG      30.30R
MARTIN STATE   PTCLDY    32  28  86 CALM      30.32S
ANNAPOLIS      CLOUDY    34  25  69 CALM      30.30S
FORT MEADE*    CLOUDY    32  28  86 CALM      30.33R

$$

MDZ012-015-019>023-210800-
MARYLAND EASTERN SHORE

CITY           SKY/WX    TMP DP  RH WIND       PRES   REMARKS
OCEAN CITY     CLOUDY    27  24  89 NW3       30.30R
SALISBURY      CLOUDY    28  23  81 CALM      30.31R
BAY BRIDGE AP*   N/A     32  27  80 CALM      30.31R
CAMBRIDGE*     PTCLDY    30  27  86 CALM      30.30S
EASTON*        MOCLDY    31  29  95 CALM      30.34S

$$

MDZ017>025-210800-
SOUTHERN MARYLAND

CITY           SKY/WX    TMP DP  RH WIND       PRES   REMARKS
PATUXENT RIVER CLOUDY    31  25  78 W3        30.31R
ST INIGOES     CLOUDY    32  26  78 CALM      30.30S
LEONARDTOWN*   CLOUDY    32  27  80 CALM      30.32S

$$

MDZ003>005-210800-
NORTH CENTRAL MARYLAND

CITY           SKY/WX    TMP DP  RH WIND       PRES   REMARKS
FREDERICK*     CLOUDY    32  25  74 CALM      30.33R
HAGERSTOWN APT CLOUDY    29  22  75 NW3       30.28R
WESTMINSTER*   CLOUDY    28  21  74 CALM      30.27R

$$

MDZ501>502-210800-
WESTERN MARYLAND

CITY           SKY/WX    TMP DP  RH WIND       PRES   REMARKS
OAKLAND*       CLOUDY    23 N/A N/A W5        30.15S
CUMBERLAND*    CLOUDY    32  27  80 CALM      30.30S

$$

VAZ025>031-210800-
SHENANDOAH VALLEY

CITY           SKY/WX    TMP DP  RH WIND       PRES   REMARKS
WINCHESTER*    CLOUDY    32  21  64 CALM      30.27S
FRONT ROYAL*   CLOUDY    32  27  80 CALM      30.27R
LURAY*         CLOUDY    32  28  86 CALM      30.26R
NEW MARKET*    CLOUDY    31  25  77 CALM      30.25S
STAUNTON*      CLOUDY    32  26  79 CALM      30.25S
WAYNESBORO*    CLOUDY    31  26  81 CALM      30.22S

$$

WVZ021-048>050-054>055-210800-
EASTERN WEST VIRGINIA PANHANDLE

CITY           SKY/WX    TMP DP  RH WIND       PRES   REMARKS
MARTINSBURG    CLOUDY    32  22  66 CALM      30.28S
PETERSBURG*    CLOUDY    33  29  86 CALM      30.26S

$$

VAZ036>039-050-210800-
CENTRAL FOOTHILLS

CITY           SKY/WX    TMP DP  RH WIND       PRES   REMARKS
CHARLOTTESVILL CLOUDY    32  25  75 CALM      30.26S
CULPEPER*      CLOUDY    34  28  80 CALM      30.30S
ORANGE*        CLOUDY    32  30  93 CALM      30.30S
GORDONSVILLE*  CLOUDY    32  28  86 CALM      30.28S
WARRENTON*     CLOUDY    32  32 100 CALM      30.30R

$$

VAZ055>057-210800-
NORTH AND CENTRAL PIEDMONT

CITY           SKY/WX    TMP DP  RH WIND       PRES   REMARKS
FREDERICKSBRG* CLOUDY    34  27  77 CALM      30.30S
STAFFORD*      CLOUDY    32  28  87 CALM      30.35R

$$

NCZ024-NYZ072-PAZ021-071-VAZ022-071-210800-
OTHER REGIONAL OBSERVATIONS

CITY           SKY/WX    TMP DP  RH WIND       PRES   REMARKS
NEW YORK CITY  CLOUDY    31  21  66 VRB3      30.30S
PHILADELPHIA   CLOUDY    33  23  66 CALM      30.31R
PITTSBURGH     CLOUDY    27  22  81 CALM      30.25S
ROANOKE        CLOUDY    35  26  69 E5        30.25S
RICHMOND       CLOUDY    36  25  64 CALM      30.29S
RALEIGH        CLOUDY    38  34  85 CALM      30.28R FOG

$$

ANZ530>537-210800-
MARINE OBSERVATIONS

STATION/POSITION TIME  TEMP    WIND        PRES
                       AIR SEA DIR/SP/G
                 (UTC) (F)     (DEG/KT/KT) (MB)
THOMAS PT LIGHT  0700   35 41  110/  3/  4 1027.3R
BALT KEY BRIDGE  0700   34      20/  5/  5 1026.0R
COVE POINT       0700   33     320/  4/  5 1025.9S
LEWISETTA        0700   35     280/  3/  4 1025.9S
SOLOMONS ISLAND  0600      42                N/A

$$




USA.gov is the U.S. government's official web portal to all federal, state and local government web resources and services.